Year,Month,Day,Hour,Minute,Value (Times are PST for temperature in C)
2012,09,28,10,21,16.90
2012,09,28,10,22,16.90
2012,09,28,10,23,17.00
2012,09,28,10,24,17.00
2012,09,28,10,25,17.10
2012,09,28,10,26,17.10
2012,09,28,10,27,17.20
2012,09,28,10,28,17.20
2012,09,28,10,29,17.20
2012,09,28,10,30,17.30
2012,09,28,10,31,17.30
2012,09,28,10,32,17.40
2012,09,28,10,33,17.40
2012,09,28,10,34,17.40
2012,09,28,10,35,17.50
2012,09,28,10,36,17.50
2012,09,28,10,37,17.50
2012,09,28,10,38,17.60
2012,09,28,10,39,17.60
2012,09,28,10,40,17.60
2012,09,28,10,41,17.60
2012,09,28,10,42,17.70
2012,09,28,10,43,17.70
2012,09,28,10,44,17.80
2012,09,28,10,45,17.80
2012,09,28,10,46,17.80
2012,09,28,10,47,17.80
2012,09,28,10,48,17.80
2012,09,28,10,49,17.90
2012,09,28,10,50,17.90
2012,09,28,10,51,17.90
2012,09,28,10,52,18.00
2012,09,28,10,53,18.00
2012,09,28,10,54,18.00
2012,09,28,10,55,18.10
2012,09,28,10,56,18.10
2012,09,28,10,57,18.20
2012,09,28,10,58,18.30
2012,09,28,10,59,18.30
2012,09,28,11,00,18.40
2012,09,28,11,01,18.50
2012,09,28,11,02,18.60
2012,09,28,11,03,18.60
2012,09,28,11,04,18.70
2012,09,28,11,05,18.70
2012,09,28,11,06,18.80
2012,09,28,11,07,18.90
2012,09,28,11,08,18.90
2012,09,28,11,09,19.00
2012,09,28,11,10,19.10
2012,09,28,11,11,19.20
2012,09,28,11,12,19.30
2012,09,28,11,13,19.40
2012,09,28,11,14,19.40
2012,09,28,11,15,19.50
2012,09,28,11,16,19.60
2012,09,28,11,17,19.70
2012,09,28,11,18,19.70
2012,09,28,11,19,19.80
2012,09,28,11,20,19.90
2012,09,28,11,21,20.00
2012,09,28,11,22,20.00
2012,09,28,11,23,20.20
2012,09,28,11,24,20.20
2012,09,28,11,25,20.30
2012,09,28,11,26,20.40
2012,09,28,11,27,20.50
2012,09,28,11,28,20.60
2012,09,28,11,29,20.60
2012,09,28,11,30,20.70
2012,09,28,11,31,20.70
2012,09,28,11,32,20.70
2012,09,28,11,33,20.70
2012,09,28,11,34,20.80
2012,09,28,11,35,20.80
2012,09,28,11,36,20.80
2012,09,28,11,37,20.80
2012,09,28,11,38,20.90
2012,09,28,11,39,20.90
2012,09,28,11,40,21.00
2012,09,28,11,41,21.00
2012,09,28,11,42,20.90
2012,09,28,11,43,21.00
2012,09,28,11,44,20.90
2012,09,28,11,45,20.90
2012,09,28,11,46,20.90
2012,09,28,11,47,20.90
2012,09,28,11,48,20.90
2012,09,28,11,49,20.90
2012,09,28,11,50,20.90
2012,09,28,11,51,20.90
2012,09,28,11,52,21.00
2012,09,28,11,53,21.00
2012,09,28,11,54,21.00
2012,09,28,11,55,21.00
2012,09,28,11,56,21.00
2012,09,28,11,57,21.00
2012,09,28,11,58,21.00
2012,09,28,11,59,21.00
2012,09,28,12,00,20.90
2012,09,28,12,01,20.90
2012,09,28,12,02,20.90
2012,09,28,12,03,20.80
2012,09,28,12,04,20.80
2012,09,28,12,05,20.80
2012,09,28,12,06,20.80
2012,09,28,12,07,20.70
2012,09,28,12,08,20.70
2012,09,28,12,09,20.60
2012,09,28,12,10,20.60
2012,09,28,12,11,20.60
2012,09,28,12,12,20.60
2012,09,28,12,13,20.50
2012,09,28,12,14,20.40
2012,09,28,12,15,20.40
2012,09,28,12,16,20.40
2012,09,28,12,17,20.40
2012,09,28,12,18,20.30
2012,09,28,12,19,20.30
2012,09,28,12,20,20.30
2012,09,28,12,21,20.20
2012,09,28,12,22,20.20
2012,09,28,12,23,20.10
2012,09,28,12,24,20.00
2012,09,28,12,25,20.00
2012,09,28,12,26,19.90
2012,09,28,12,27,19.90
2012,09,28,12,28,19.90
2012,09,28,12,29,19.90
2012,09,28,12,30,19.90
2012,09,28,12,31,19.90
2012,09,28,12,32,19.90
2012,09,28,12,33,19.90
2012,09,28,12,34,19.90
2012,09,28,12,35,19.90
2012,09,28,12,36,19.90
2012,09,28,12,37,20.00
2012,09,28,12,38,19.90
2012,09,28,12,39,19.90
2012,09,28,12,40,19.90
2012,09,28,12,41,19.90
2012,09,28,12,42,19.80
2012,09,28,12,43,19.80
2012,09,28,12,44,19.70
2012,09,28,12,45,19.60
2012,09,28,12,46,19.60
2012,09,28,12,47,19.50
2012,09,28,12,48,19.50
2012,09,28,12,49,19.40
2012,09,28,12,50,19.40
2012,09,28,12,51,19.40
2012,09,28,12,52,19.40
2012,09,28,12,53,19.50
2012,09,28,12,54,19.50
2012,09,28,12,55,19.50
2012,09,28,12,56,19.50
2012,09,28,12,57,19.60
2012,09,28,12,58,19.60
2012,09,28,12,59,19.60
2012,09,28,13,00,19.60
2012,09,28,13,01,19.60
2012,09,28,13,02,19.60
2012,09,28,13,03,19.60
2012,09,28,13,04,19.60
2012,09,28,13,05,19.70
2012,09,28,13,06,19.70
2012,09,28,13,07,19.70
2012,09,28,13,08,19.70
2012,09,28,13,09,19.70
2012,09,28,13,10,19.70
2012,09,28,13,11,19.80
2012,09,28,13,12,19.80
2012,09,28,13,13,19.80
2012,09,28,13,14,19.80
2012,09,28,13,15,19.80
2012,09,28,13,16,19.80
2012,09,28,13,17,19.90
2012,09,28,13,18,20.00
2012,09,28,13,19,20.00
2012,09,28,13,20,20.10
2012,09,28,13,21,20.10
2012,09,28,13,22,20.10
2012,09,28,13,23,20.10
2012,09,28,13,24,20.10
2012,09,28,13,25,20.10
2012,09,28,13,26,20.10
2012,09,28,13,27,20.10
2012,09,28,13,28,20.10
2012,09,28,13,29,20.10
2012,09,28,13,30,20.20
2012,09,28,13,31,20.20
2012,09,28,13,32,20.20
2012,09,28,13,33,20.20
2012,09,28,13,34,20.30
2012,09,28,13,35,20.40
2012,09,28,13,36,20.40
2012,09,28,13,37,20.50
2012,09,28,13,38,20.60
2012,09,28,13,39,20.60
2012,09,28,13,40,20.70
2012,09,28,13,41,20.80
2012,09,28,13,42,20.80
2012,09,28,13,43,20.90
2012,09,28,13,44,21.00
2012,09,28,13,45,21.10
2012,09,28,13,46,21.10
2012,09,28,13,47,21.20
2012,09,28,13,48,21.20
2012,09,28,13,49,21.30
2012,09,28,13,50,21.30
2012,09,28,13,51,21.40
2012,09,28,13,52,21.40
2012,09,28,13,53,21.40
2012,09,28,13,54,21.40
2012,09,28,13,55,21.50
2012,09,28,13,56,21.50
2012,09,28,13,57,21.50
2012,09,28,13,58,21.50
2012,09,28,13,59,21.50
2012,09,28,14,00,21.50
2012,09,28,14,01,21.50
2012,09,28,14,02,21.50
2012,09,28,14,03,21.50
2012,09,28,14,04,21.50
2012,09,28,14,05,21.50
2012,09,28,14,06,21.50
2012,09,28,14,07,21.50
2012,09,28,14,08,21.50
2012,09,28,14,09,21.50
2012,09,28,14,10,21.50
2012,09,28,14,11,21.50
2012,09,28,14,12,21.50
2012,09,28,14,13,21.60
2012,09,28,14,14,21.60
2012,09,28,14,15,21.60
2012,09,28,14,16,21.60
2012,09,28,14,17,21.60
2012,09,28,14,18,21.60
2012,09,28,14,19,21.60
2012,09,28,14,20,21.60
2012,09,28,14,21,21.50
2012,09,28,14,22,21.50
2012,09,28,14,23,21.40
2012,09,28,14,24,21.40
2012,09,28,14,25,21.40
2012,09,28,14,26,21.40
2012,09,28,14,27,21.40
2012,09,28,14,28,21.40
2012,09,28,14,29,21.30
2012,09,28,14,30,21.30
2012,09,28,14,31,21.30
2012,09,28,14,32,21.30
2012,09,28,14,33,21.30
2012,09,28,14,34,21.20
2012,09,28,14,35,21.20
2012,09,28,14,36,21.20
2012,09,28,14,37,21.20
2012,09,28,14,38,21.10
2012,09,28,14,39,21.00
2012,09,28,14,40,21.00
2012,09,28,14,41,20.90
2012,09,28,14,42,20.80
2012,09,28,14,43,20.70
2012,09,28,14,44,20.70
2012,09,28,14,45,20.60
2012,09,28,14,46,20.60
2012,09,28,14,47,20.50
2012,09,28,14,48,20.40
2012,09,28,14,49,20.40
2012,09,28,14,50,20.30
2012,09,28,14,51,20.30
2012,09,28,14,52,20.30
2012,09,28,14,53,20.20
2012,09,28,14,54,20.20
2012,09,28,14,55,20.20
2012,09,28,14,56,20.20
2012,09,28,14,57,20.20
2012,09,28,14,58,20.20
2012,09,28,14,59,20.20
2012,09,28,15,00,20.10
2012,09,28,15,01,20.10
2012,09,28,15,02,20.10
2012,09,28,15,03,20.10
2012,09,28,15,04,20.10
2012,09,28,15,05,20.10
2012,09,28,15,06,20.10
2012,09,28,15,07,20.10
2012,09,28,15,08,20.10
2012,09,28,15,09,20.10
2012,09,28,15,10,20.20
2012,09,28,15,11,20.20
2012,09,28,15,12,20.10
2012,09,28,15,13,20.10
2012,09,28,15,14,20.10
2012,09,28,15,15,20.10
2012,09,28,15,16,20.10
2012,09,28,15,17,20.10
2012,09,28,15,18,20.10
2012,09,28,15,19,20.00
2012,09,28,15,20,20.00
2012,09,28,15,21,20.00
2012,09,28,15,22,19.90
2012,09,28,15,23,19.90
2012,09,28,15,24,19.90
2012,09,28,15,25,19.90
2012,09,28,15,26,19.90
2012,09,28,15,27,19.90
2012,09,28,15,28,19.90
2012,09,28,15,29,19.90
2012,09,28,15,30,19.90
2012,09,28,15,31,19.90
2012,09,28,15,32,19.90
2012,09,28,15,33,19.90
2012,09,28,15,34,19.90
2012,09,28,15,35,19.90
2012,09,28,15,36,19.90
2012,09,28,15,37,19.90
2012,09,28,15,38,20.00
2012,09,28,15,39,20.00
2012,09,28,15,40,19.90
2012,09,28,15,41,19.90
2012,09,28,15,42,19.90
2012,09,28,15,43,19.90
2012,09,28,15,44,19.90
2012,09,28,15,45,20.00
2012,09,28,15,46,20.00
2012,09,28,15,47,20.00
2012,09,28,15,48,20.00
2012,09,28,15,49,19.90
2012,09,28,15,50,19.90
2012,09,28,15,51,19.90
2012,09,28,15,52,19.90
2012,09,28,15,53,19.90
2012,09,28,15,54,19.90
2012,09,28,15,55,19.90
2012,09,28,15,56,19.90
2012,09,28,15,57,19.90
2012,09,28,15,58,19.90
2012,09,28,15,59,19.90
2012,09,28,16,00,19.90
2012,09,28,16,01,19.90
2012,09,28,16,02,19.90
2012,09,28,16,03,19.90
2012,09,28,16,04,19.90
2012,09,28,16,05,19.90
2012,09,28,16,06,19.90
2012,09,28,16,07,19.80
2012,09,28,16,08,19.80
2012,09,28,16,09,19.80
2012,09,28,16,10,19.80
2012,09,28,16,11,19.80
2012,09,28,16,12,19.80
2012,09,28,16,13,19.80
2012,09,28,16,14,19.70
2012,09,28,16,15,19.70
2012,09,28,16,16,19.70
2012,09,28,16,17,19.60
2012,09,28,16,18,19.60
2012,09,28,16,19,19.50
2012,09,28,16,20,19.50
2012,09,28,16,21,19.40
2012,09,28,16,22,19.40
2012,09,28,16,23,19.40
2012,09,28,16,24,19.30
2012,09,28,16,25,19.30
2012,09,28,16,26,19.20
2012,09,28,16,27,19.20
2012,09,28,16,28,19.20
2012,09,28,16,29,19.10
2012,09,28,16,30,19.10
2012,09,28,16,31,19.00
2012,09,28,16,32,18.90
2012,09,28,16,33,18.90
2012,09,28,16,34,18.90
2012,09,28,16,35,18.80
2012,09,28,16,36,18.80
2012,09,28,16,37,18.70
2012,09,28,16,38,18.70
2012,09,28,16,39,18.60
2012,09,28,16,40,18.50
2012,09,28,16,41,18.40
2012,09,28,16,42,18.40
2012,09,28,16,43,18.30
2012,09,28,16,44,18.30
2012,09,28,16,45,18.20
2012,09,28,16,46,18.20
2012,09,28,16,47,18.10
2012,09,28,16,48,18.10
2012,09,28,16,49,18.10
2012,09,28,16,50,18.00
2012,09,28,16,51,18.00
2012,09,28,16,52,17.90
2012,09,28,16,53,17.90
2012,09,28,16,54,17.90
2012,09,28,16,55,17.90
2012,09,28,16,56,17.80
2012,09,28,16,57,17.80
2012,09,28,16,58,17.80
2012,09,28,16,59,17.70
2012,09,28,17,00,17.70
2012,09,28,17,01,17.70
2012,09,28,17,02,17.60
2012,09,28,17,03,17.60
2012,09,28,17,04,17.60
2012,09,28,17,05,17.60
2012,09,28,17,06,17.50
2012,09,28,17,07,17.50
2012,09,28,17,08,17.40
2012,09,28,17,09,17.40
2012,09,28,17,10,17.30
2012,09,28,17,11,17.10
2012,09,28,17,12,17.00
2012,09,28,17,13,16.90
2012,09,28,17,14,16.80
2012,09,28,17,15,16.70
2012,09,28,17,16,16.60
2012,09,28,17,17,16.60
2012,09,28,17,18,16.50
2012,09,28,17,19,16.40
2012,09,28,17,20,16.40
2012,09,28,17,21,16.30
2012,09,28,17,22,16.30
2012,09,28,17,23,16.30
2012,09,28,17,24,16.20
2012,09,28,17,25,16.10
2012,09,28,17,26,16.00
2012,09,28,17,27,15.90
2012,09,28,17,28,15.80
2012,09,28,17,29,15.80
2012,09,28,17,30,15.70
2012,09,28,17,31,15.70
2012,09,28,17,32,15.60
2012,09,28,17,33,15.60
2012,09,28,17,34,15.50
2012,09,28,17,35,15.50
2012,09,28,17,36,15.40
2012,09,28,17,37,15.40
2012,09,28,17,38,15.40
2012,09,28,17,39,15.40
2012,09,28,17,40,15.30
2012,09,28,17,41,15.30
2012,09,28,17,42,15.30
2012,09,28,17,43,15.30
2012,09,28,17,44,15.30
2012,09,28,17,45,15.20
2012,09,28,17,46,15.20
2012,09,28,17,47,15.20
2012,09,28,17,48,15.20
2012,09,28,17,49,15.20
2012,09,28,17,50,15.20
2012,09,28,17,51,15.20
2012,09,28,17,52,15.20
2012,09,28,17,53,15.20
2012,09,28,17,54,15.20
2012,09,28,17,55,15.20
2012,09,28,17,56,15.20
2012,09,28,17,57,15.20
2012,09,28,17,58,15.20
2012,09,28,17,59,15.20
2012,09,28,18,00,15.20
2012,09,28,18,01,15.10
2012,09,28,18,02,15.10
2012,09,28,18,03,15.10
2012,09,28,18,04,15.10
2012,09,28,18,05,15.10
2012,09,28,18,06,15.10
2012,09,28,18,07,15.00
2012,09,28,18,08,15.00
2012,09,28,18,09,15.00
2012,09,28,18,10,15.00
2012,09,28,18,11,15.00
2012,09,28,18,12,15.00
2012,09,28,18,13,15.00
2012,09,28,18,14,15.00
2012,09,28,18,15,15.00
2012,09,28,18,16,15.10
2012,09,28,18,17,15.10
2012,09,28,18,18,15.00
2012,09,28,18,19,15.00
2012,09,28,18,20,15.00
2012,09,28,18,21,15.00
2012,09,28,18,22,15.00
2012,09,28,18,23,15.00
2012,09,28,18,24,15.00
2012,09,28,18,25,15.00
2012,09,28,18,26,15.00
2012,09,28,18,27,15.00
2012,09,28,18,28,15.00
2012,09,28,18,29,15.00
2012,09,28,18,30,15.00
2012,09,28,18,31,15.00
2012,09,28,18,32,15.00
2012,09,28,18,33,15.00
2012,09,28,18,34,15.00
2012,09,28,18,35,15.00
2012,09,28,18,36,15.00
2012,09,28,18,37,15.00
2012,09,28,18,38,15.00
2012,09,28,18,39,15.00
2012,09,28,18,40,15.00
2012,09,28,18,41,15.00
2012,09,28,18,42,15.00
2012,09,28,18,43,15.00
2012,09,28,18,44,15.00
2012,09,28,18,45,15.00
2012,09,28,18,46,15.00
2012,09,28,18,47,15.00
2012,09,28,18,48,15.00
2012,09,28,18,49,15.00
2012,09,28,18,50,15.00
2012,09,28,18,51,15.00
2012,09,28,18,52,15.00
2012,09,28,18,53,15.00
